When you browse on this site, cookies collect data to enhance your experience and personalize the content and advertising you see.
Visit our Privacy Policy to learn more. By continuing to use the site, you agree to this use of cookies and data.
  • In Slovakia
  • List of Countries
  • For 7 days
  • Water Temperature
  • Weather Map
  • Weather Widgets
  • user-avatar
    Login

    Hourly Weather Batina

    Today, 15 October, Tuesday

    Time Temperature Precipitation Wind Pressure Humidity
    00:00 +19°C° 0 mm 2 mps 672 mmHg 65%
    01:00 +18°C° 0.1 mm 2 mps 672 mmHg 67%
    02:00 +18°C° 0.1 mm 2 mps 672 mmHg 68%
    03:00 +18°C° 0.1 mm 2 mps 671 mmHg 70%
    04:00 +17°C° 0.3 mm 2 mps 671 mmHg 73%
    05:00 +17°C° 0.3 mm 2 mps 671 mmHg 75%
    06:00 +16°C° 0 mm 2 mps 672 mmHg 77%
    07:00 +19°C° 0.1 mm 1 mps 672 mmHg 70%
    08:00 +20°C° 0.1 mm 1 mps 673 mmHg 63%
    09:00 +21°C° 0.1 mm 1 mps 674 mmHg 56%
    10:00 +21°C° 0 mm 2 mps 674 mmHg 51%
    11:00 +23°C° 0 mm 2 mps 674 mmHg 45%
    12:00 +25°C° 0 mm 3 mps 674 mmHg 39%
    13:00 +25°C° 0 mm 4 mps 674 mmHg 38%
    14:00 +25°C° 0 mm 4 mps 673 mmHg 36%
    15:00 +25°C° 0 mm 4 mps 673 mmHg 34%
    16:00 +22°C° 0.1 mm 4 mps 673 mmHg 42%
    17:00 +21°C° 0.1 mm 3 mps 673 mmHg 50%
    18:00 +19°C° 0.1 mm 2 mps 673 mmHg 58%
    19:00 +18°C° 0.2 mm 2 mps 673 mmHg 64%
    20:00 +17°C° 0.2 mm 2 mps 673 mmHg 70%
    21:00 +17°C° 0.2 mm 2 mps 673 mmHg 76%
    22:00 +16°C° 0 mm 2 mps 673 mmHg 79%
    23:00 +16°C° 0 mm 2 mps 673 mmHg 81%

    Tomorrow, 16 October, Wednesday

    Time Temperature Precipitation Wind Pressure Humidity
    00:00 +16°C° 0 mm 1 mps 673 mmHg 84%
    01:00 +15°C° 0 mm 1 mps 673 mmHg 84%
    02:00 +15°C° 0 mm 1 mps 673 mmHg 84%
    03:00 +15°C° 0 mm 1 mps 672 mmHg 84%
    04:00 +15°C° 0 mm 1 mps 672 mmHg 84%
    05:00 +13°C° 0 mm 0 mps 672 mmHg 83%
    06:00 +13°C° 0 mm 0 mps 672 mmHg 83%
    07:00 +16°C° 0 mm 1 mps 673 mmHg 73%
    08:00 +18°C° 0 mm 1 mps 673 mmHg 63%
    09:00 +20°C° 0 mm 1 mps 674 mmHg 53%
    10:00 +20°C° 0 mm 2 mps 674 mmHg 50%
    11:00 +21°C° 0 mm 3 mps 674 mmHg 47%
    12:00 +22°C° 0 mm 4 mps 674 mmHg 44%
    13:00 +22°C° 0.1 mm 4 mps 674 mmHg 46%
    14:00 +22°C° 0.1 mm 4 mps 673 mmHg 48%
    15:00 +22°C° 0.1 mm 5 mps 673 mmHg 49%
    16:00 +21°C° 0.1 mm 4 mps 673 mmHg 54%
    17:00 +20°C° 0.1 mm 3 mps 673 mmHg 59%
    18:00 +19°C° 0.1 mm 2 mps 672 mmHg 63%
    19:00 +18°C° 0 mm 2 mps 673 mmHg 66%
    20:00 +19°C° 0 mm 1 mps 673 mmHg 68%
    21:00 +19°C° 0 mm 1 mps 673 mmHg 71%
    22:00 +18°C° 0 mm 1 mps 673 mmHg 72%
    23:00 +18°C° 0 mm 1 mps 673 mmHg 72%

    Day after tomorrow, 17 October, Thursday

    Time Temperature Precipitation Wind Pressure Humidity
    00:00 +18°C° 0 mm 1 mps 673 mmHg 73%
    01:00 +18°C° 0 mm 1 mps 673 mmHg 73%
    02:00 +18°C° 0 mm 1 mps 672 mmHg 74%
    03:00 +16°C° 0 mm 1 mps 672 mmHg 74%
    04:00 +16°C° 0 mm 1 mps 672 mmHg 74%
    05:00 +16°C° 0 mm 1 mps 672 mmHg 75%
    06:00 +16°C° 0 mm 1 mps 672 mmHg 75%
    07:00 +18°C° 0 mm 2 mps 673 mmHg 68%
    08:00 +19°C° 0 mm 3 mps 673 mmHg 60%
    09:00 +21°C° 0 mm 3 mps 674 mmHg 53%
    10:00 +22°C° 0 mm 4 mps 674 mmHg 50%
    11:00 +23°C° 0 mm 5 mps 674 mmHg 48%
    12:00 +23°C° 0 mm 5 mps 674 mmHg 45%
    13:00 +23°C° 0.1 mm 5 mps 674 mmHg 46%
    14:00 +23°C° 0.1 mm 5 mps 673 mmHg 48%
    15:00 +23°C° 0.1 mm 5 mps 673 mmHg 49%
    16:00 +22°C° 0.2 mm 4 mps 673 mmHg 54%
    17:00 +20°C° 0.2 mm 3 mps 673 mmHg 59%
    18:00 +19°C° 0.2 mm 2 mps 672 mmHg 65%
    19:00 +19°C° 0 mm 2 mps 673 mmHg 65%
    20:00 +20°C° 0 mm 1 mps 673 mmHg 66%
    21:00 +20°C° 0 mm 1 mps 673 mmHg 67%
    22:00 +19°C° 0 mm 1 mps 673 mmHg 67%
    23:00 +19°C° 0 mm 1 mps 673 mmHg 67%

    18 October, Friday

    Time Temperature Precipitation Wind Pressure Humidity
    00:00 +19°C° 0 mm 1 mps 672 mmHg 67%
    01:00 +19°C° 0 mm 1 mps 672 mmHg 67%
    02:00 +19°C° 0 mm 1 mps 672 mmHg 68%
    03:00 +18°C° 0 mm 1 mps 672 mmHg 68%
    04:00 +18°C° 0 mm 1 mps 672 mmHg 69%
    05:00 +18°C° 0 mm 1 mps 672 mmHg 70%
    06:00 +18°C° 0 mm 1 mps 672 mmHg 71%
    07:00 +19°C° 0 mm 1 mps 672 mmHg 63%
    08:00 +21°C° 0 mm 1 mps 673 mmHg 56%
    09:00 +22°C° 0 mm 1 mps 674 mmHg 49%
    10:00 +23°C° 0 mm 2 mps 674 mmHg 45%
    11:00 +24°C° 0 mm 2 mps 674 mmHg 42%
    12:00 +25°C° 0 mm 3 mps 674 mmHg 38%
    13:00 +25°C° 0 mm 3 mps 673 mmHg 37%
    14:00 +25°C° 0 mm 3 mps 673 mmHg 36%
    15:00 +25°C° 0 mm 3 mps 673 mmHg 36%
    16:00 +24°C° 0 mm 3 mps 673 mmHg 41%
    17:00 +22°C° 0 mm 3 mps 672 mmHg 46%
    18:00 +21°C° 0 mm 2 mps 672 mmHg 51%
    19:00 +20°C° 0 mm 2 mps 672 mmHg 54%
    20:00 +21°C° 0 mm 1 mps 672 mmHg 58%
    21:00 +20°C° 0 mm 1 mps 672 mmHg 61%
    22:00 +19°C° 0 mm 1 mps 672 mmHg 61%
    23:00 +19°C° 0 mm 1 mps 672 mmHg 62%

    19 October, Saturday

    Time Temperature Precipitation Wind Pressure Humidity
    00:00 +19°C° 0 mm 1 mps 671 mmHg 62%
    01:00 +19°C° 0 mm 1 mps 671 mmHg 62%
    02:00 +18°C° 0 mm 1 mps 671 mmHg 62%
    03:00 +17°C° 0 mm 2 mps 671 mmHg 61%
    04:00 +17°C° 0 mm 2 mps 671 mmHg 61%
    05:00 +17°C° 0 mm 2 mps 671 mmHg 62%
    06:00 +17°C° 0 mm 2 mps 671 mmHg 62%
    07:00 +19°C° 0 mm 3 mps 672 mmHg 54%
    08:00 +21°C° 0 mm 3 mps 672 mmHg 47%
    09:00 +23°C° 0 mm 4 mps 673 mmHg 39%
    10:00 +25°C° 0 mm 5 mps 673 mmHg 37%
    11:00 +25°C° 0 mm 5 mps 673 mmHg 35%
    12:00 +26°C° 0 mm 6 mps 673 mmHg 33%
    13:00 +26°C° 0 mm 6 mps 672 mmHg 34%
    14:00 +26°C° 0 mm 6 mps 672 mmHg 35%
    15:00 +24°C° 0 mm 6 mps 671 mmHg 35%
    16:00 +23°C° 0 mm 5 mps 671 mmHg 39%
    17:00 +22°C° 0 mm 4 mps 671 mmHg 43%
    18:00 +21°C° 0 mm 3 mps 671 mmHg 47%
    19:00 +20°C° 0 mm 3 mps 671 mmHg 48%
    20:00 +20°C° 0 mm 3 mps 671 mmHg 50%
    21:00 +19°C° 0 mm 2 mps 671 mmHg 51%
    22:00 +19°C° 0 mm 3 mps 671 mmHg 52%
    23:00 +19°C° 0 mm 3 mps 671 mmHg 53%

    20 October, Sunday

    Time Temperature Precipitation Wind Pressure Humidity
    00:00 +19°C° 0 mm 3 mps 671 mmHg 54%
    01:00 +18°C° 0 mm 3 mps 671 mmHg 56%
    02:00 +18°C° 0 mm 3 mps 671 mmHg 57%
    03:00 +18°C° 0 mm 3 mps 670 mmHg 59%
    04:00 +17°C° 0 mm 3 mps 670 mmHg 60%
    05:00 +17°C° 0 mm 3 mps 671 mmHg 60%
    06:00 +17°C° 0 mm 3 mps 671 mmHg 61%
    07:00 +19°C° 0 mm 4 mps 671 mmHg 54%
    08:00 +21°C° 0 mm 5 mps 672 mmHg 48%
    09:00 +23°C° 0 mm 6 mps 673 mmHg 41%
    10:00 +23°C° 0 mm 6 mps 672 mmHg 39%
    11:00 +24°C° 0 mm 7 mps 672 mmHg 38%
    12:00 +24°C° 0 mm 8 mps 672 mmHg 36%
    13:00 +24°C° 0 mm 7 mps 672 mmHg 37%
    14:00 +24°C° 0 mm 7 mps 671 mmHg 37%
    15:00 +23°C° 0 mm 6 mps 671 mmHg 38%
    16:00 +22°C° 0 mm 5 mps 671 mmHg 41%
    17:00 +21°C° 0 mm 4 mps 670 mmHg 45%
    18:00 +20°C° 0 mm 3 mps 670 mmHg 49%
    19:00 +20°C° 0 mm 3 mps 670 mmHg 50%
    20:00 +19°C° 0 mm 3 mps 670 mmHg 51%
    21:00 +19°C° 0 mm 3 mps 671 mmHg 52%
    22:00 +19°C° 0 mm 3 mps 670 mmHg 54%
    23:00 +18°C° 0 mm 3 mps 670 mmHg 55%
    Show more